IU7URP-17 Weather Reports


time (UTC)temp
C
wind
direction
speed
KPH
gust
KPH
rain 1hr
cm
rain 24hr
cm
rain mn
cm
humidity
%
barometer
mb
20260906051548 25 0.0 0.0 0.00 0.00 0.00 63 1019.8
20260906043540 21 0.0 0.0 0.00 0.00 0.00 72 1019.8
20260906035531 21 0.0 0.0 0.00 0.00 0.00 74 1019.5
20260906033527 21 0.0 0.0 0.00 0.00 0.00 74 1019.6
20260906031521 21 0.0 0.0 0.00 0.00 0.00 76 1019.5
20260906025517 21 0.0 0.0 0.00 0.00 0.00 76 1019.6
20260906021509 21 0.0 0.0 0.00 0.00 0.00 74 1019.5
20260906015505 21 0.0 0.0 0.00 0.00 0.00 76 1019.5
20260906013501 21 0.0 0.0 0.00 0.00 0.00 76 1019.6
20260906011457 21 0.0 0.0 0.00 0.00 0.00 77 1019.6
20260906005453 20 0.0 0.0 0.00 0.00 0.00 77 1019.4
20260906003449 22 0.0 0.0 0.00 0.00 0.00 73 1019.3
20260906001445 23 0.0 0.0 0.00 0.00 0.00 72 1019.4
20260905235441 23 0.0 0.0 0.00 0.00 0.00 70 1019.3
20260905233437 23 0.0 0.0 0.00 0.00 0.00 70 1019.5
20260905231434 23 0.0 0.0 0.00 0.00 0.00 69 1019.6
20260905225429 23 0.0 0.0 0.00 0.00 0.00 68 1019.6
20260905223425 23 0.0 0.0 0.00 0.00 0.00 68 1019.7
20260905221422 23 0.0 0.0 0.00 0.00 0.00 66 1019.7
20260905215418 24 0.0 0.0 0.00 0.00 0.00 66 1019.5
20260905213414 24 0.0 0.0 0.00 0.00 0.00 65 1019.3
20260905211409 24 0.0 0.0 0.00 0.00 0.00 65 1019.5
20260905205405 24 0.0 0.0 0.00 0.00 0.00 64 1019.4
20260905203402 25 0.0 0.0 0.00 0.00 0.00 62 1019.3
20260905201358 25 0.0 0.0 0.00 0.00 0.00 58 1019.3
20260905195354 25 0.0 0.0 0.00 0.00 0.00 56 1019.4
20260905193350 25 0.0 0.0 0.00 0.00 0.00 53 1019.3
20260905191345 25 0.0 0.0 0.00 0.00 0.00 51 1019.1
20260905185341 26 0.0 0.0 0.00 0.00 0.00 51 1018.9
20260905183337 26 0.0 0.0 0.00 0.00 0.00 49 1018.8
20260905181333 26 0.0 0.0 0.00 0.00 0.00 47 1018.6
20260905175329 26 0.0 0.0 0.00 0.00 0.00 44 1018.4
20260905165316 29 0.0 0.0 0.00 0.00 0.00 38 1017.9
20260905163312 31 0.0 0.0 0.00 0.00 0.00 33 1017.8
20260905161308 31 0.0 0.0 0.00 0.00 0.00 35 1017.7
20260905155306 32 0.0 0.0 0.00 0.00 0.00 33 1017.7
20260905153300 33 0.0 0.0 0.00 0.00 0.00 29 1017.8
20260905151256 33 0.0 0.0 0.00 0.00 0.00 30 1017.8
20260905145252 34 0.0 0.0 0.00 0.00 0.00 31 1017.9
20260905143248 34 0.0 0.0 0.00 0.00 0.00 31 1018.0
20260905141244 34 0.0 0.0 0.00 0.00 0.00 30 1018.1
20260905135240 35 0.0 0.0 0.00 0.00 0.00 31 1018.1
20260905133236 35 0.0 0.0 0.00 0.00 0.00 30 1018.1
20260905131232 35 0.0 0.0 0.00 0.00 0.00 30 1018.3
20260905125228 36 0.0 0.0 0.00 0.00 0.00 30 1018.3
20260905123224 35 0.0 0.0 0.00 0.00 0.00 31 1018.4
20260905121220 35 0.0 0.0 0.00 0.00 0.00 33 1018.6
20260905115215 36 0.0 0.0 0.00 0.00 0.00 32 1018.7
20260905113211 35 0.0 0.0 0.00 0.00 0.00 32 1018.9
20260905111207 36 0.0 0.0 0.00 0.00 0.00 29 1018.7
20260905105203 35 0.0 0.0 0.00 0.00 0.00 33 1018.9
20260905103159 35 0.0 0.0 0.00 0.00 0.00 32 1019.0
20260905095150 35 0.0 0.0 0.00 0.00 0.00 32 1019.4
20260905093146 33 0.0 0.0 0.00 0.00 0.00 38 1019.7
20260905091143 33 0.0 0.0 0.00 0.00 0.00 39 1019.8
20260905085138 33 0.0 0.0 0.00 0.00 0.00 41 1019.9
20260905083134 32 0.0 0.0 0.00 0.00 0.00 48 1020.0
20260905081130 31 0.0 0.0 0.00 0.00 0.00 50 1020.0
20260905075126 30 0.0 0.0 0.00 0.00 0.00 55 1020.0
20260905073122 30 0.0 0.0 0.00 0.00 0.00 60 1020.0
20260905071118 28 0.0 0.0 0.00 0.00 0.00 66 1020.0
20260905063110 27 0.0 0.0 0.00 0.00 0.00 66 1020.1
20260905061106 26 0.0 0.0 0.00 0.00 0.00 68 1020.3
20260905055102 24 0.0 0.0 0.00 0.00 0.00 72 1020.4